Date String (YYYY-MM-DD hh:mm:ss) UTC,Instrument flags,Ambient pressure (hPa),Sample flow (lpm),Bypass flow (lpm),Sample temperature (°C),Ambient temperature (°C),ASC tube jacket temperature (°C),LED temperature (°C),Box temperature (°C),Sample RH (%),Span deviation,Mass concentration (μg/m³),Mass concentration (μg/m³),Mass concentration (μg/m³)
DateTimeUTC,F1_M11,P_M11,Q1_M11,Q2_M11,T1_M11,T2_M11,T3_M11,T4_M11,T5_M11,U1_M11,ZSPAN_M11,X0_M11,X2_M11,X1_M11
2021-12-10 12:00:00,,0810.3,5.00,0.00,22.8,21.9,00.0,31.8,24.6,18.3,0000.0,0011.22,0003.96,0002.32
2021-12-10 12:01:00,,0810.4,4.99,0.00,22.8,21.9,00.0,31.8,24.6,18.3,0000.0,0010.96,0003.90,0002.29
2021-12-10 12:02:00,,0810.5,5.01,0.00,22.8,21.9,00.0,31.8,24.6,18.3,0000.0,0010.38,0003.89,0002.29
2021-12-10 12:03:00,,0810.5,4.98,0.00,22.8,21.9,00.0,31.8,24.6,18.3,0000.0,0010.52,0003.90,0002.29
2021-12-10 12:04:00,,0810.5,5.01,0.00,22.8,21.9,00.0,31.8,24.6,18.3,0000.0,0011.66,0003.89,0002.27
2021-12-10 12:05:00,,0810.5,4.99,0.00,22.8,21.9,00.0,31.8,24.6,18.3,0000.0,0011.19,0003.85,0002.24
2021-12-10 12:06:00,,0810.4,5.01,0.00,22.8,21.9,00.0,31.8,24.6,18.3,0000.0,0010.86,0003.81,0002.23
2021-12-10 12:07:00,,0810.4,5.00,0.00,22.8,21.9,00.0,31.8,24.6,18.3,0000.0,0010.96,0003.84,0002.22
2021-12-10 12:08:00,,0810.4,5.00,0.00,22.8,21.9,00.0,31.8,24.6,18.3,0000.0,0011.45,0003.84,0002.20
2021-12-10 12:09:00,,0810.5,5.00,0.00,22.8,21.9,00.0,31.8,24.6,18.3,0000.0,0012.13,0003.85,0002.19
2021-12-10 12:10:00,,0810.6,5.01,0.00,22.8,21.9,00.0,31.8,24.5,18.3,0000.0,0012.62,0003.78,0002.17
2021-12-10 12:11:00,,0810.5,4.99,0.00,22.8,21.9,00.0,31.8,24.5,18.3,0000.0,0012.27,0003.73,0002.15
2021-12-10 12:12:00,,0810.5,5.01,0.00,22.8,21.9,00.0,31.8,24.6,18.3,0000.0,0012.41,0003.70,0002.11
2021-12-10 12:13:00,,0810.5,5.00,0.00,22.8,21.9,00.0,31.7,24.6,18.3,0000.0,0012.51,0003.67,0002.08
2021-12-10 12:14:00,,0810.4,4.99,0.00,22.8,21.9,00.0,31.7,24.5,18.3,0000.0,0012.48,0003.65,0002.07
2021-12-10 12:15:00,,0810.4,5.00,0.00,22.8,21.9,00.0,31.7,24.5,18.3,0000.0,0011.89,0003.67,0002.06
2021-12-10 12:16:00,,0810.4,5.01,0.00,22.8,21.9,00.0,31.7,24.5,18.3,0000.0,0012.30,0003.69,0002.07
2021-12-10 12:17:00,,0810.5,5.00,0.00,22.7,21.9,00.0,31.7,24.5,18.3,0000.0,0012.73,0003.72,0002.07
2021-12-10 12:18:00,,0810.5,5.00,0.00,22.7,21.9,00.0,31.7,24.5,18.3,0000.0,0013.33,0003.72,0002.07
2021-12-10 12:19:00,,0810.5,5.00,0.00,22.7,21.9,00.0,31.7,24.5,18.3,0000.0,0012.98,0003.74,0002.06
2021-12-10 12:20:00,,0810.5,5.00,0.00,22.7,21.9,00.0,31.7,24.5,18.3,0000.0,0012.56,0003.73,0002.05
2021-12-10 12:21:00,,0810.5,4.99,0.00,22.7,21.9,00.0,31.7,24.5,18.3,0000.0,0013.34,0003.74,0002.05
2021-12-10 12:22:00,,0810.5,5.02,0.00,22.7,21.9,00.0,31.7,24.5,18.3,0000.0,0013.43,0003.76,0002.05
2021-12-10 12:23:00,,0810.5,5.00,0.00,22.7,21.9,00.0,31.7,24.5,18.3,0000.0,0013.20,0003.79,0002.07
2021-12-10 12:24:00,,0810.5,4.99,0.00,22.7,21.9,00.0,31.7,24.5,18.2,0000.0,0013.20,0003.82,0002.10
2021-12-10 12:25:00,,0810.6,5.00,0.00,22.7,21.9,00.0,31.7,24.5,18.2,0000.0,0013.11,0003.86,0002.11
2021-12-10 12:26:00,,0810.6,5.01,0.00,22.7,21.9,00.0,31.7,24.5,18.2,0000.0,0013.13,0003.87,0002.13
2021-12-10 12:27:00,,0810.6,4.99,0.00,22.7,21.9,00.0,31.7,24.5,18.2,0000.0,0012.87,0003.90,0002.14
2021-12-10 12:28:00,,0810.6,5.01,0.00,22.7,21.9,00.0,31.7,24.5,18.1,0000.0,0012.68,0003.90,0002.15
2021-12-10 12:29:00,,0810.6,4.99,0.00,22.7,21.9,00.0,31.7,24.5,18.1,0000.0,0012.07,0003.88,0002.18
2021-12-10 12:30:00,,0810.6,5.01,0.00,22.7,21.8,00.0,31.7,24.5,18.1,0000.0,0011.98,0003.90,0002.20
2021-12-10 12:31:00,,0810.6,5.00,0.00,22.7,21.9,00.0,31.7,24.5,18.1,0000.0,0011.80,0003.90,0002.23
2021-12-10 12:32:00,,0810.6,4.99,0.00,22.7,21.9,00.0,31.7,24.5,18.1,0000.0,0010.64,0003.92,0002.26
2021-12-10 12:33:00,,0810.6,5.00,0.00,22.7,21.8,00.0,31.7,24.5,18.1,0000.0,0010.48,0003.95,0002.30
2021-12-10 12:34:00,,0810.8,5.01,0.00,22.7,21.8,00.0,31.7,24.5,18.1,0000.0,0010.44,0003.96,0002.32
2021-12-10 12:35:00,,0810.8,4.98,0.00,22.7,21.8,00.0,31.7,24.4,18.1,0000.0,0011.32,0003.98,0002.33
2021-12-10 12:36:00,,0810.9,5.01,0.00,22.7,21.8,00.0,31.7,24.4,18.1,0000.0,0011.21,0003.95,0002.34
2021-12-10 12:37:00,,0810.9,5.00,0.00,22.7,21.8,00.0,31.7,24.4,18.1,0000.0,0010.89,0003.91,0002.36
2021-12-10 12:38:00,,0811.0,5.00,0.00,22.7,21.8,00.0,31.7,24.4,18.1,0000.0,0010.60,0003.85,0002.36
2021-12-10 12:39:00,,0811.0,5.01,0.00,22.7,21.8,00.0,31.7,24.4,18.1,0000.0,0010.75,0003.85,0002.39
2021-12-10 12:40:00,,0811.0,5.00,0.00,22.7,21.8,00.0,31.7,24.4,18.1,0000.0,0010.64,0003.84,0002.42
2021-12-10 12:41:00,,0811.1,5.00,0.00,22.6,21.8,00.0,31.6,24.4,18.1,0000.0,0010.56,0003.82,0002.49
2021-12-10 12:42:00,,0811.0,5.00,0.00,22.6,21.8,00.0,31.6,24.4,18.1,0000.0,0010.43,0003.79,0002.53
2021-12-10 12:43:00,,0811.0,5.00,0.00,22.6,21.7,00.0,31.6,24.4,18.1,0000.0,0010.17,0003.80,0002.57
2021-12-10 12:44:00,,0811.0,5.00,0.00,22.6,21.8,00.0,31.6,24.4,18.0,0000.0,0010.09,0003.82,0002.61
2021-12-10 12:45:00,,0811.0,5.00,0.00,22.7,22.4,00.0,31.7,24.5,18.0,0000.0,0010.26,0003.92,0002.67
2021-12-10 12:46:00,,0811.0,5.00,0.00,22.8,23.0,00.0,31.7,24.8,17.9,0000.0,0009.45,0003.93,0002.72
2021-12-10 12:47:00,,0811.0,4.99,0.00,22.9,22.9,00.0,31.7,24.8,17.8,0000.0,0009.74,0003.97,0002.79
2021-12-10 12:48:00,,0811.0,5.01,0.00,22.9,22.8,00.0,31.7,24.8,17.8,0000.0,0009.81,0004.04,0002.83
2021-12-10 12:49:00,,0811.0,5.00,0.00,22.9,22.7,00.0,31.8,24.8,17.7,0000.0,0009.47,0004.11,0002.87
2021-12-10 12:50:00,,0811.0,5.00,0.00,22.9,22.6,00.0,31.8,24.8,17.7,0000.0,0009.15,0004.13,0002.90
2021-12-10 12:51:00,,0811.0,5.01,0.00,22.9,22.5,00.0,31.8,24.8,17.7,0000.0,0009.10,0004.13,0002.91
2021-12-10 12:52:00,,0811.0,4.99,0.00,22.9,22.4,00.0,31.8,24.8,17.7,0000.0,0009.37,0004.12,0002.92
2021-12-10 12:53:00,,0811.0,5.00,0.00,22.9,22.3,00.0,31.8,24.7,17.7,0000.0,0009.47,0004.14,0002.92
2021-12-10 12:54:00,,0811.1,5.00,0.00,22.9,22.3,00.0,31.8,24.7,17.7,0000.0,0009.56,0004.12,0002.90
2021-12-10 12:55:00,,0811.2,5.01,0.00,22.9,22.2,00.0,31.8,24.7,17.7,0000.0,0010.04,0004.11,0002.88
2021-12-10 12:56:00,,0811.2,5.00,0.00,22.9,22.2,00.0,31.8,24.7,17.7,0000.0,0010.36,0004.08,0002.85
2021-12-10 12:57:00,,0811.2,5.00,0.00,22.9,22.1,00.0,31.8,24.7,17.7,0000.0,0010.68,0004.08,0002.84
2021-12-10 12:58:00,,0811.2,5.01,0.00,22.9,22.1,00.0,31.8,24.6,17.7,0000.0,0010.62,0004.09,0002.85
2021-12-10 12:59:00,,0811.2,5.00,0.00,22.8,22.1,00.0,31.8,24.6,17.7,0000.0,0010.35,0004.05,0002.86
